Radioactive Concentration measured by Seawater Radiation Monitor near Fukushima Daiichi Nuclear Power Station
Date,Time,Cs137(Bq/L),Cs134(Bq/L),Total β(Bq/L)
2017/02/17,00:00,0.92,0.074,ND
2017/02/17,00:10,0.92,0.075,ND
2017/02/17,00:20,0.94,0.075,ND
2017/02/17,00:30,0.90,0.079,ND
2017/02/17,00:40,0.88,0.079,ND
2017/02/17,00:50,0.89,0.080,ND
2017/02/17,01:00,0.88,0.092,9.0
2017/02/17,01:10,0.90,0.10,ND
2017/02/17,01:20,0.91,0.11,ND
2017/02/17,01:30,0.95,0.096,ND
2017/02/17,01:40,0.95,0.093,ND
2017/02/17,01:50,0.94,0.095,ND
2017/02/17,02:00,0.94,0.084,ND
2017/02/17,02:10,0.82,0.087,ND
2017/02/17,02:20,0.88,0.073,ND
2017/02/17,02:30,0.85,0.079,ND
2017/02/17,02:40,0.83,0.087,ND
2017/02/17,02:50,0.84,0.080,ND
2017/02/17,03:00,0.82,0.085,ND
2017/02/17,03:10,0.82,0.090,ND
2017/02/17,03:20,0.83,0.089,ND
2017/02/17,03:30,0.83,0.088,11
2017/02/17,03:40,0.84,0.089,11
2017/02/17,03:50,0.83,0.087,9.2
2017/02/17,04:00,0.84,0.089,11
2017/02/17,04:10,0.86,0.084,11
2017/02/17,04:20,0.84,0.088,12
2017/02/17,04:30,0.85,0.096,ND
2017/02/17,04:40,0.85,0.089,9.3
2017/02/17,04:50,0.84,0.092,9.0
2017/02/17,05:00,0.80,0.10,ND
2017/02/17,05:10,0.79,0.095,ND
2017/02/17,05:20,0.81,0.093,ND
2017/02/17,05:30,0.81,0.077,ND
2017/02/17,05:40,0.82,0.074,ND
2017/02/17,05:50,0.81,0.077,ND
2017/02/17,06:00,0.83,0.075,ND
2017/02/17,06:10,0.81,0.072,ND
2017/02/17,06:20,0.79,0.075,ND
2017/02/17,06:30,0.79,0.085,ND
2017/02/17,06:40,0.79,0.080,ND
2017/02/17,06:50,0.78,0.081,ND
2017/02/17,07:00,0.78,0.078,ND
2017/02/17,07:10,0.78,0.082,ND
2017/02/17,07:20,0.78,0.078,ND
2017/02/17,07:30,0.80,0.066,12
2017/02/17,07:40,0.77,0.079,11
2017/02/17,07:50,0.79,0.074,10
2017/02/17,08:00,0.77,0.084,10
2017/02/17,08:10,0.77,0.088,12
2017/02/17,08:20,0.79,0.089,13
2017/02/17,08:30,0.77,0.10,12
2017/02/17,08:40,0.79,0.089,12
2017/02/17,08:50,0.80,0.088,12
2017/02/17,09:00,0.83,0.083,12
2017/02/17,09:10,0.82,0.081,12
2017/02/17,09:20,0.79,0.089,11
2017/02/17,09:30,0.79,0.091,11
2017/02/17,09:40,0.77,0.10,13
2017/02/17,09:50,0.79,0.10,13
2017/02/17,10:00,0.79,0.11,13
2017/02/17,10:10,0.82,0.10,12
2017/02/17,10:20,0.82,0.095,12
2017/02/17,10:30,0.85,0.085,12
2017/02/17,10:40,0.85,0.086,11
2017/02/17,10:50,0.84,0.091,9.3
2017/02/17,11:00,0.82,0.089,ND
2017/02/17,11:10,0.82,0.090,9.3
2017/02/17,11:20,0.82,0.086,9.7
2017/02/17,11:30,0.80,0.088,12
2017/02/17,11:40,0.81,0.080,11
2017/02/17,11:50,0.82,0.074,12
2017/02/17,12:00,0.83,0.075,13
2017/02/17,12:10,0.83,0.079,13
2017/02/17,12:20,0.79,0.088,10
2017/02/17,12:30,0.82,0.080,ND
2017/02/17,12:40,0.80,0.088,ND
2017/02/17,12:50,0.81,0.084,ND
2017/02/17,13:00,0.80,0.087,ND
2017/02/17,13:10,0.83,0.098,ND
2017/02/17,13:20,0.88,0.089,ND
2017/02/17,13:30,0.88,0.094,8.9
2017/02/17,13:40,0.77,0.094,8.8
2017/02/17,13:50,0.83,0.081,10
2017/02/17,14:00,0.82,0.081,11
2017/02/17,14:10,0.82,0.070,11
2017/02/17,14:20,0.79,0.089,ND
2017/02/17,14:30,0.79,0.089,ND
2017/02/17,14:40,0.78,0.096,9.9
2017/02/17,14:50,0.80,0.097,12
2017/02/17,15:00,0.79,0.097,12
2017/02/17,15:10,0.78,0.11,13
2017/02/17,15:20,0.78,0.11,18
2017/02/17,15:30,0.75,0.11,18
2017/02/17,15:40,0.75,0.11,17
2017/02/17,15:50,0.76,0.090,14
2017/02/17,16:00,0.77,0.091,14
2017/02/17,16:10,0.78,0.084,13
2017/02/17,16:20,0.80,0.072,12
2017/02/17,16:30,0.82,0.067,13
2017/02/17,16:40,0.84,0.064,13
2017/02/17,16:50,0.82,0.074,12
2017/02/17,17:00,0.82,0.071,11
2017/02/17,17:10,0.80,0.076,11
2017/02/17,17:20,0.78,0.089,10
2017/02/17,17:30,0.77,0.096,12
2017/02/17,17:40,0.74,0.097,9.9
2017/02/17,17:50,0.76,0.092,13
2017/02/17,18:00,0.77,0.091,13
2017/02/17,18:10,0.80,0.080,11
2017/02/17,18:20,0.80,0.076,12
2017/02/17,18:30,0.83,0.073,14
2017/02/17,18:40,0.84,0.077,14
2017/02/17,18:50,0.87,0.069,13
2017/02/17,19:00,0.84,0.084,16
2017/02/17,19:10,0.86,0.083,16
2017/02/17,19:20,0.88,0.077,14
2017/02/17,19:30,0.87,0.088,8.8
2017/02/17,19:40,0.89,0.077,8.8
2017/02/17,19:50,0.87,0.084,ND
2017/02/17,20:00,0.80,0.093,ND
2017/02/17,20:10,0.89,0.074,ND
2017/02/17,20:20,0.90,0.073,ND
2017/02/17,20:30,0.91,0.074,11
2017/02/17,20:40,0.91,0.077,13
2017/02/17,20:50,0.93,0.084,14
2017/02/17,21:00,0.95,0.092,15
2017/02/17,21:10,0.96,0.098,12
2017/02/17,21:20,0.95,0.10,10
2017/02/17,21:30,0.97,0.092,10
2017/02/17,21:40,0.98,0.092,ND
2017/02/17,21:50,0.98,0.096,ND
2017/02/17,22:00,0.99,0.092,ND
2017/02/17,22:10,0.99,0.11,9.7
2017/02/17,22:20,0.99,0.12,11
2017/02/17,22:30,0.94,0.13,11
2017/02/17,22:40,0.95,0.14,11
2017/02/17,22:50,0.96,0.13,14
2017/02/17,23:00,0.95,0.13,14
2017/02/17,23:10,0.87,0.14,14
2017/02/17,23:20,0.97,0.12,14
2017/02/17,23:30,0.92,0.12,12
2017/02/17,23:40,0.89,0.13,13
2017/02/17,23:50,0.96,0.12,9.0
